CYQY

Sydney

Airport
ICAO code
CYQY
Summary
ICAO Region
NAM
ICAO Territory
Location

Sydney, Nova Scotia,

Coordinates
46° 9' 41" N , 60° 2' 52" W
KCC
Metar
CYQY 230100Z 04006KT 3/4SM R06/2600VP6000FT/U -SN OVC004 M01/M01 A2975 RMK NS8 PRESRR SLP079

Description

International airport serving Sydney, Nova Scotia.

Climatology

Humid Continental climate (Köppen climate classification Dfb) - Variable weather patterns and a large seasonal temperature variance. Summers are often warm and humid with frequent thunderstorms and winters can be very cold with frequent snowfall and persistent snow cover.

Runways

Designator Length Width Surface Rops
1/19 1829 46 ASP Yes/Yes
7/25 2155 61 ASP Yes/Yes

Airport map

Aerial View

SKYbrary Partners:

Safety knowledge contributed by: